User: anonymous   Login
Location: Muenchen
(48.1800°N, 11.5800°E)
Time: 13:08:49
(UTC+02:00)
Language:

Cosmos 2233 Rocket - Orbit

View from above orbital plane
View from above orbital plane
View from above satellite
View from above satellite

Ground track
Ground track

The orbit data is extracted from the following two-line orbital elements,

1 22488U 93008B   17149.97231412 +.00000076 +00000-0 +61091-4 0  9999
2 22488 082.9432 091.9949 0023981 276.9879 153.4089 13.77721325221469
Epoch (UTC): 29 May 2017 23:20:07
Eccentricity: 0.0023981
inclination: 82.9432°
perigee height: 954 km
apogee height: 989 km
right ascension of ascending node: 91.9949°
argument of perigee: 276.9879°
revolutions per day: 13.77721325
mean anomaly at epoch: 153.4089°
orbit number at epoch: 22146

The dashed part of the orbit path shows where the satellite is in the earth's shadow,  

DLR